timestamp,wind_dir_avg,wind_spd_avg,wind_spd_max_dir,wind_spd_gust,battery_voltage,lat,long
2023-03-19 00:04:00+00:00,164.0,1.32,168.0,1.45,12.33,47.59359,-54.27349
2023-03-19 00:14:00+00:00,126.0,1.06,129.0,1.2,12.33,47.59359,-54.27349
2023-03-19 00:24:00+00:00,150.0,0.88,154.0,1.01,12.33,47.59359,-54.27349
2023-03-19 00:34:00+00:00,153.0,1.29,155.0,1.35,12.33,47.59359,-54.27349
2023-03-19 00:44:00+00:00,124.0,0.75,125.0,0.8,12.33,47.59359,-54.27349
2023-03-19 00:54:00+00:00,124.0,0.79,126.0,1.14,12.33,47.59359,-54.27349
2023-03-19 01:04:00+00:00,86.0,0.62,53.0,0.98,12.33,47.59359,-54.27349
2023-03-19 01:14:01+00:00,59.0,1.25,65.0,1.49,12.25,47.59359,-54.27349
2023-03-19 01:24:01+00:00,42.0,0.6,55.0,0.87,12.25,47.59359,-54.27349
2023-03-19 01:34:01+00:00,98.0,1.04,96.0,1.29,12.25,47.59359,-54.27349
2023-03-19 01:44:01+00:00,185.0,0.44,144.0,0.73,12.25,47.59359,-54.27349
2023-03-19 01:54:01+00:00,101.0,0.7,100.0,1.03,12.25,47.59359,-54.27349
2023-03-19 02:04:01+00:00,135.0,1.26,138.0,1.4,12.25,47.59359,-54.27349
2023-03-19 02:14:00+00:00,130.0,1.62,130.0,1.7,12.25,47.59359,-54.27349
2023-03-19 02:24:00+00:00,117.0,1.45,116.0,1.74,12.25,47.59359,-54.27349
2023-03-19 02:34:00+00:00,116.0,1.57,120.0,2.05,12.25,47.59359,-54.27349
2023-03-19 02:44:00+00:00,124.0,1.9,122.0,2.16,12.25,47.59359,-54.27349
2023-03-19 02:54:00+00:00,113.0,2.11,111.0,3.17,12.25,47.59359,-54.27349
2023-03-19 03:04:00+00:00,126.0,1.91,127.0,2.13,12.25,47.59359,-54.27349
2023-03-19 03:14:00+00:00,112.0,1.63,121.0,2.61,12.25,47.59359,-54.27349
2023-03-19 03:24:00+00:00,143.0,1.27,140.0,1.49,12.25,47.59359,-54.27349
2023-03-19 03:34:00+00:00,335.0,0.88,334.0,1.1,12.25,47.59359,-54.27349
2023-03-19 03:44:00+00:00,56.0,1.58,53.0,1.86,12.25,47.59359,-54.27349
2023-03-19 03:54:00+00:00,63.0,1.13,66.0,1.25,12.25,47.59359,-54.27349
2023-03-19 04:04:00+00:00,79.0,1.43,91.0,1.88,12.25,47.59359,-54.27349
2023-03-19 04:14:00+00:00,93.0,1.69,96.0,2.06,12.25,47.59359,-54.27349
2023-03-19 04:24:00+00:00,84.0,1.48,85.0,1.82,12.25,47.59359,-54.27349
2023-03-19 04:34:00+00:00,68.0,1.07,69.0,1.35,12.25,47.59359,-54.27349
2023-03-19 04:44:00+00:00,147.0,0.56,148.0,0.67,12.25,47.59359,-54.27349
2023-03-19 04:54:00+00:00,101.0,0.88,102.0,1.08,12.25,47.59359,-54.27349
2023-03-19 05:04:00+00:00,69.0,1.07,63.0,1.19,12.25,47.59359,-54.27349
2023-03-19 05:14:00+00:00,70.0,1.98,69.0,2.16,12.17,47.59359,-54.27349
2023-03-19 05:24:00+00:00,74.0,2.21,72.0,2.38,12.17,47.59359,-54.27349
2023-03-19 05:34:00+00:00,106.0,1.66,121.0,2.19,12.17,47.59359,-54.27349
2023-03-19 05:44:00+00:00,151.0,1.85,153.0,1.93,12.17,47.59359,-54.27349
2023-03-19 05:54:00+00:00,100.0,1.2,109.0,1.58,12.17,47.59359,-54.27349
2023-03-19 06:04:00+00:00,174.0,1.92,176.0,2.28,12.17,47.59359,-54.27349
2023-03-19 06:14:00+00:00,151.0,1.57,153.0,1.74,12.17,47.59359,-54.27349
2023-03-19 06:24:00+00:00,181.0,2.29,180.0,2.49,12.17,47.59359,-54.27349
2023-03-19 06:34:00+00:00,147.0,1.37,144.0,1.53,12.17,47.59359,-54.27349
2023-03-19 06:44:00+00:00,164.0,1.04,162.0,1.29,12.17,47.59359,-54.27349
2023-03-19 06:54:00+00:00,179.0,1.13,164.0,1.28,12.17,47.59359,-54.27349
2023-03-19 07:04:00+00:00,160.0,2.14,159.0,2.24,12.17,47.59359,-54.27349
2023-03-19 07:14:01+00:00,124.0,1.51,126.0,1.72,12.09,47.59359,-54.27349
2023-03-19 07:24:01+00:00,72.0,2.63,72.0,2.95,12.09,47.59359,-54.27349
2023-03-19 07:34:01+00:00,76.0,2.68,78.0,2.97,12.09,47.59359,-54.27349
2023-03-19 07:44:01+00:00,69.0,2.2,70.0,2.91,12.09,47.59359,-54.27349
2023-03-19 07:54:01+00:00,41.0,2.16,49.0,2.87,12.09,47.59359,-54.27349
2023-03-19 08:04:01+00:00,49.0,2.06,50.0,2.55,12.09,47.59359,-54.27349
2023-03-19 08:14:00+00:00,58.0,3.3,58.0,3.69,12.09,47.59359,-54.27349
2023-03-19 08:24:00+00:00,39.0,2.17,50.0,3.25,12.09,47.59359,-54.27349
2023-03-19 08:34:00+00:00,36.0,1.5,59.0,2.31,12.09,47.59359,-54.27349
2023-03-19 08:44:00+00:00,44.0,2.55,53.0,3.25,12.09,47.59359,-54.27349
2023-03-19 08:54:00+00:00,51.0,1.52,67.0,2.21,12.09,47.59359,-54.27349
2023-03-19 09:04:00+00:00,78.0,2.52,75.0,3.16,12.09,47.59359,-54.27349
2023-03-19 09:14:00+00:00,80.0,2.87,66.0,3.65,12.09,47.59359,-54.27349
2023-03-19 09:24:00+00:00,78.0,2.82,73.0,3.48,12.09,47.59359,-54.27349
2023-03-19 09:34:00+00:00,76.0,2.95,73.0,3.46,12.09,47.59359,-54.27349
2023-03-19 09:44:00+00:00,72.0,2.94,80.0,3.44,12.09,47.59359,-54.27349
2023-03-19 09:54:00+00:00,73.0,2.98,62.0,3.63,12.09,47.59359,-54.27349
2023-03-19 10:04:00+00:00,103.0,3.39,117.0,4.89,12.09,47.59359,-54.27349
2023-03-19 10:14:00+00:00,102.0,3.11,116.0,4.38,12.09,47.59359,-54.27349
2023-03-19 10:24:00+00:00,111.0,2.88,139.0,5.5,12.09,47.59359,-54.27349
2023-03-19 10:34:00+00:00,102.0,3.65,107.0,5.55,12.09,47.59359,-54.27349
2023-03-19 10:44:00+00:00,67.0,3.2,60.0,3.95,12.09,47.59359,-54.27349
2023-03-19 10:54:00+00:00,96.0,2.29,83.0,3.57,12.09,47.59359,-54.27349
2023-03-19 11:04:00+00:00,120.0,4.17,124.0,5.04,12.09,47.59359,-54.27349
2023-03-19 11:14:00+00:00,116.0,3.93,120.0,5.04,12.09,47.59359,-54.27349
2023-03-19 11:24:00+00:00,97.0,4.11,110.0,8.05,12.09,47.59359,-54.27349
2023-03-19 11:34:00+00:00,101.0,2.9,120.0,4.56,12.09,47.59359,-54.27349
2023-03-19 11:44:00+00:00,129.0,4.99,135.0,5.59,12.09,47.59359,-54.27349
2023-03-19 11:54:00+00:00,125.0,4.99,128.0,5.82,12.09,47.59359,-54.27349
2023-03-19 12:04:00+00:00,125.0,4.06,127.0,4.64,12.09,47.59359,-54.27349
2023-03-19 12:14:01+00:00,130.0,3.19,128.0,3.78,12.33,47.59359,-54.27349
2023-03-19 12:24:01+00:00,133.0,4.2,144.0,5.77,12.33,47.59359,-54.27349
2023-03-19 12:34:01+00:00,128.0,3.24,123.0,4.17,12.33,47.59359,-54.27349
2023-03-19 12:44:01+00:00,163.0,5.63,162.0,7.26,12.33,47.59359,-54.27349
2023-03-19 12:54:01+00:00,147.0,8.85,137.0,11.8,12.33,47.59359,-54.27349
2023-03-19 13:04:01+00:00,149.0,8.4,140.0,11.4,12.33,47.59359,-54.27349
2023-03-19 13:14:00+00:00,144.0,7.34,131.0,9.16,12.97,47.59359,-54.27349
2023-03-19 13:24:00+00:00,151.0,7.42,150.0,8.42,12.97,47.59359,-54.27349
2023-03-19 13:34:00+00:00,168.0,5.82,173.0,7.07,12.97,47.59359,-54.27349
2023-03-19 13:44:00+00:00,165.0,6.86,171.0,7.9,12.97,47.59359,-54.27349
2023-03-19 13:54:00+00:00,163.0,7.33,165.0,9.06,12.97,47.59359,-54.27349
2023-03-19 14:04:00+00:00,164.0,6.67,170.0,7.74,12.97,47.59359,-54.27349
2023-03-19 14:14:00+00:00,173.0,6.22,174.0,7.39,13.21,47.59359,-54.27349
2023-03-19 14:24:00+00:00,164.0,7.13,165.0,8.31,13.21,47.59359,-54.27349
2023-03-19 14:34:00+00:00,172.0,4.67,178.0,5.49,13.21,47.59359,-54.27349
2023-03-19 14:44:00+00:00,162.0,5.84,156.0,7.08,13.21,47.59359,-54.27349
2023-03-19 14:54:00+00:00,173.0,5.56,171.0,6.51,13.21,47.59359,-54.27349
2023-03-19 15:04:00+00:00,181.0,5.53,181.0,6.59,13.21,47.59359,-54.27349
2023-03-19 15:14:00+00:00,171.0,5.75,178.0,6.73,13.21,47.59359,-54.27349
2023-03-19 15:24:00+00:00,176.0,6.52,179.0,7.67,13.21,47.59359,-54.27349
2023-03-19 15:34:00+00:00,176.0,5.67,174.0,6.42,13.21,47.59359,-54.27349
2023-03-19 15:44:00+00:00,175.0,5.98,171.0,6.8,13.21,47.59359,-54.27349
2023-03-19 15:54:00+00:00,173.0,5.11,175.0,5.45,13.21,47.59359,-54.27349
2023-03-19 16:04:00+00:00,176.0,4.83,177.0,7.38,13.21,47.59359,-54.27349
2023-03-19 16:14:00+00:00,187.0,3.66,184.0,3.88,13.29,47.59359,-54.27349
2023-03-19 16:24:00+00:00,215.0,3.73,224.0,4.36,13.29,47.59359,-54.27349
2023-03-19 16:34:00+00:00,217.0,6.14,219.0,6.9,13.29,47.59359,-54.27349
2023-03-19 16:44:00+00:00,212.0,8.97,216.0,9.83,13.29,47.59359,-54.27349
2023-03-19 16:54:00+00:00,212.0,9.81,217.0,10.98,13.29,47.59359,-54.27349
2023-03-19 17:04:00+00:00,207.0,8.68,209.0,9.87,13.29,47.59359,-54.27349
2023-03-19 17:14:00+00:00,212.0,10.62,212.0,11.88,13.29,47.59359,-54.27349
2023-03-19 17:24:00+00:00,213.0,10.81,202.0,14.15,13.29,47.59359,-54.27349
2023-03-19 17:34:00+00:00,215.0,9.4,217.0,10.86,13.29,47.59359,-54.27349
2023-03-19 17:44:00+00:00,215.0,8.79,216.0,10.48,13.29,47.59359,-54.27349
2023-03-19 17:54:00+00:00,219.0,9.29,216.0,10.58,13.29,47.59359,-54.27349
2023-03-19 18:04:00+00:00,218.0,10.81,223.0,11.54,13.29,47.59359,-54.27349
2023-03-19 18:14:00+00:00,214.0,9.53,211.0,11.11,13.44,47.59359,-54.27349
2023-03-19 18:24:00+00:00,217.0,9.75,217.0,11.42,13.44,47.59359,-54.27349
2023-03-19 18:34:00+00:00,218.0,9.48,215.0,10.45,13.44,47.59359,-54.27349
2023-03-19 18:44:00+00:00,238.0,9.85,237.0,11.26,13.44,47.59359,-54.27349
2023-03-19 18:54:00+00:00,246.0,8.94,244.0,10.71,13.44,47.59359,-54.27349
2023-03-19 19:04:00+00:00,256.0,11.44,257.0,13.0,13.44,47.59359,-54.27349
2023-03-19 19:14:00+00:00,246.0,9.1,246.0,10.47,13.13,47.59359,-54.27349
2023-03-19 19:24:00+00:00,249.0,8.34,249.0,10.19,13.13,47.59359,-54.27349
2023-03-19 19:34:00+00:00,256.0,10.26,255.0,11.68,13.13,47.59359,-54.27349
2023-03-19 19:44:00+00:00,255.0,10.29,255.0,11.69,13.13,47.59359,-54.27349
2023-03-19 19:54:00+00:00,257.0,13.06,259.0,18.4,13.13,47.59359,-54.27349
2023-03-19 20:04:00+00:00,265.0,13.11,271.0,18.3,13.13,47.59359,-54.27349
2023-03-19 20:14:00+00:00,258.0,10.14,262.0,11.79,13.6,47.59359,-54.27349
2023-03-19 20:24:00+00:00,251.0,9.44,257.0,13.01,13.6,47.59359,-54.27349
2023-03-19 20:34:00+00:00,247.0,12.48,255.0,18.0,13.6,47.59359,-54.27349
2023-03-19 20:44:00+00:00,245.0,10.39,247.0,11.87,13.6,47.59359,-54.27349
2023-03-19 20:54:00+00:00,245.0,10.15,253.0,11.85,13.6,47.59359,-54.27349
2023-03-19 21:04:00+00:00,249.0,10.39,256.0,12.79,13.6,47.59359,-54.27349
2023-03-19 21:14:00+00:00,256.0,11.0,259.0,13.37,13.29,47.59359,-54.27349
2023-03-19 21:24:00+00:00,250.0,10.01,254.0,12.1,13.29,47.59359,-54.27349
2023-03-19 21:34:00+00:00,253.0,10.47,254.0,12.76,13.29,47.59359,-54.27349
2023-03-19 21:44:00+00:00,248.0,9.36,253.0,11.8,13.29,47.59359,-54.27349
2023-03-19 21:54:00+00:00,247.0,9.75,252.0,12.38,13.29,47.59359,-54.27349
2023-03-19 22:04:00+00:00,254.0,9.8,256.0,12.83,13.29,47.59359,-54.27349
2023-03-19 22:14:00+00:00,241.0,8.97,255.0,12.36,12.73,47.59359,-54.27349
2023-03-19 22:24:00+00:00,242.0,8.78,249.0,12.65,12.73,47.59359,-54.27349
2023-03-19 22:34:00+00:00,244.0,8.39,257.0,11.17,12.73,47.59359,-54.27349
2023-03-19 22:44:00+00:00,258.0,9.62,261.0,12.17,12.73,47.59359,-54.27349
2023-03-19 22:54:00+00:00,262.0,9.57,267.0,16.29,12.73,47.59359,-54.27349
2023-03-19 23:04:00+00:00,254.0,10.98,253.0,13.44,12.73,47.59359,-54.27349
2023-03-19 23:14:00+00:00,256.0,8.85,257.0,12.15,12.33,47.59359,-54.27349
2023-03-19 23:24:00+00:00,252.0,9.55,261.0,12.71,12.33,47.59359,-54.27349
2023-03-19 23:34:00+00:00,252.0,7.8,256.0,11.64,12.33,47.59359,-54.27349
2023-03-19 23:44:00+00:00,251.0,9.63,253.0,12.99,12.33,47.59359,-54.27349
2023-03-19 23:54:00+00:00,249.0,8.86,250.0,12.53,12.33,47.59359,-54.27349
